Hourly Data Report for September 04, 2018

ASHCROFT
BRITISH COLUMBIA
Current Station Operator: ECCC - MSC

50°42'30.005" N
121°16'53.001" W
327.00 m
1160515
71681
VAS

Download Data

Hourly Data (September 2018)
Hourly Data Report for September 4, 2018
TIME
LST
Temp Definition
°C
Dew Point Definition
°C
Rel Hum Definition
%
Precip. Amount Definition
mm

Wind Dir Definition
10's deg

Wind Spd Definition
km/h
Visibility Definition
km
Stn Press Definition
kPa
Hmdx Definition


Wind Chill Definition


Weather Definition


00:00 12.7 5.3 61 0.0 12 3   98.36     LegendNANA
01:00 11.6 5.6 67 0.0 26 2   98.39     LegendNANA
02:00 10.8 5.7 71 0.0 3 1   98.45     LegendNANA
03:00 9.7 5.8 77 0.0 16 2   98.49     LegendNANA
04:00 9.3 5.9 79 0.0 18 3   98.53     LegendNANA
05:00 8.4 5.8 84 0.0 18 2   98.58     LegendNANA
06:00 8.3 5.5 83 0.0 0 1   98.64     LegendNANA
07:00 8.9 5.4 79 0.0 10 1   98.68     LegendNANA
08:00 11.4 4.6 63 0.0 16 1   98.66     LegendNANA
09:00 12.6 4.7 59 0.0 33 2   98.63     LegendNANA
10:00 14.1 4.8 54 0.0 24 4   98.57     LegendNANA
11:00 16.4 4.7 46 0.0 29 3   98.48     LegendNANA
12:00 18.8 2.7 34 0.0 30 2   98.39     LegendNANA
13:00 20.8 0.0 25 0.0 35 5   98.29     LegendNANA
14:00 22.0 1.4 26 0.0 33 7   98.20     LegendNANA
15:00 22.6 0.1 22 0.0 34 5   98.14     LegendNANA
16:00 23.2 -1.2 20 0.0 31 5   98.07     LegendNANA
17:00 22.7 -0.6 21 0.0 29 2   98.03     LegendNANA
18:00 21.1 0.4 25 0.0 36 5   97.99     LegendNANA
19:00 18.5 2.3 34 0.0 2 5   98.00     LegendNANA
20:00 15.9 3.4 43 0.0 16 4   98.06     LegendNANA
21:00 14.2 4.0 50 0.0 0 1   98.11     LegendNANA
22:00 13.5 3.9 52 0.0 9 3   98.13     LegendNANA
23:00 12.3 3.4 55 0.0 12 3   98.15     LegendNANA

Notes on Data Quality.

Legend

  • E = Estimated
  • M = Missing
  • NA = Not Available*
  • [empty] = Indicates an unobserved value
Date modified: